This is the latest recevied weather packets stored in our database for station/object ZL3GL-4. If no packets are shown the sender has not sent any weather packets the latest 10 day(s).
| Time | Temp. | Humidity | Pressure | Rain* | Wind** | Luminosity | Snow |
|---|---|---|---|---|---|---|---|
| 1777778910 | 14.44° C | 66% | 1032.7 hPa | 0 mm | 2.68 m/s, 128° | - | - |
| 1777778067 | 14.44° C | 65% | 1032.5 hPa | 0 mm | 3.13 m/s, 156° | - | - |
| 1777777222 | 14.44° C | 65% | 1032.3 hPa | 0 mm | 2.24 m/s, 201° | - | - |
| 1777776379 | 15° C | 66% | 1032.1 hPa | 0 mm | 2.68 m/s, 180° | - | - |
| 1777775534 | 15° C | 69% | 1032 hPa | 0 mm | 2.68 m/s, 186° | - | - |
| 1777774692 | 15° C | 66% | 1031.9 hPa | 0 mm | 2.24 m/s, 169° | - | - |
| 1777773847 | 15° C | 65% | 1031.9 hPa | 0 mm | 2.68 m/s, 153° | - | - |
| 1777772160 | 15° C | 68% | 1031.8 hPa | 0 mm | 2.68 m/s, 142° | - | - |
| 1777771314 | 15° C | 70% | 1031.8 hPa | 0 mm | 1.79 m/s, 152° | - | - |
| 1777770468 | 15° C | 69% | 1031.8 hPa | 0 mm | 1.79 m/s, 205° | - | - |
| 1777769627 | 15° C | 65% | 1031.8 hPa | 0 mm | 2.24 m/s, 191° | - | - |
| 1777768781 | 15° C | 66% | 1032 hPa | 0 mm | 2.24 m/s, 210° | - | - |
| 1777767937 | 15° C | 66% | 1032 hPa | 0 mm | 0.89 m/s, 253° | - | - |
| 1777767093 | 14.44° C | 66% | 1032.1 hPa | 0 mm | 2.24 m/s, 198° | - | - |
| 1777766249 | 14.44° C | 65% | 1032 hPa | 0 mm | 1.34 m/s, 142° | - | - |
| 1777765405 | 14.44° C | 64% | 1032.1 hPa | 0 mm | 1.34 m/s, 231° | - | - |
| 1777764565 | 13.89° C | 66% | 1032.1 hPa | 0 mm | 0 m/s | - | - |
| 1777763719 | 13.33° C | 67% | 1032.1 hPa | 0 mm | 0.45 m/s, 167° | - | - |
| 1777762875 | 13.33° C | 68% | 1032.2 hPa | 0 mm | 1.34 m/s, 169° | - | - |
| 1777762036 | 12.78° C | 74% | 1032.2 hPa | 0 mm | 0 m/s | - | - |
| 1777761189 | 12.22° C | 75% | 1032.1 hPa | 0 mm | 0.45 m/s, 198° | - | - |
| 1777760344 | 12.22° C | 76% | 1032.1 hPa | 0 mm | 0.89 m/s, 197° | - | - |
| 1777759500 | 11.67° C | 78% | 1032.1 hPa | 0 mm | 0 m/s | - | - |
| 1777758659 | 11.11° C | 83% | 1032.3 hPa | 0 mm | 0 m/s | - | - |
| 1777757819 | 10.56° C | 88% | 1032.2 hPa | 0 mm | 0.45 m/s, 135° | - | - |
* Rain latest hour (hover to see other rain measurements)
** Current wind speed in m/s (hover to see current wind gust speed)